Wenatchee, WA

12:09 AM PST on January 20, 2018 (GMT -0800)
Pangborn Memorial

Weather History for KEAT - December, 2013

Change the Weather History Date:

Tuesday, December 17, 2013

  Actual Average Record
Temperature  
Mean Temperature 33 °F 25 °F  
Max Temperature 45 °F 31 °F 52 °F (1998)
Min Temperature 21 °F 19 °F -12 °F (1964)
Degree Days  
Heating Degree Days 32 40  
Month to date heating degree days 696 657  
Since 1 July heating degree days 2537 2539  
Cooling Degree Days 0 0  
Month to date cooling degree days 0 0  
Year to date cooling degree days 383 249  
Moisture  
Dew Point 27 °F    
Average Humidity 93    
Maximum Humidity 100    
Minimum Humidity 82    
Precipitation  
Precipitation 0.00 in 0.08 in 0.33 in (2015)
Month to date precipitation 0.29 1.41  
Year to date precipitation 12.59 15.96  
Snow  
Snow 0.00 in 0.50 in - ()
Month to date snowfall 0.5 8.4  
Since 1 July snowfall 3.5 16.3  
Snow Depth 0.00 in    
Sea Level Pressure  
Sea Level Pressure 30.14 in    
Wind  
Wind Speed 1 mph (ESE)    
Max Wind Speed 5 mph    
Max Gust Speed -    
T = Trace of Precipitation, MM = Missing Value Source: NWS Daily Summary

Daily Weather History Graph

Daily Weather History Graph

Search for Another Location

Airport or City:

Trip Planner

Search our weather history database for the weather conditions in past years. The results will help you decide how hot, cold, wet, or windy it might be!

Date:

Astronomy

Dec. 17, 2013 Rise Set
Actual Time 7:43 AM PST 4:11 PM PST
Civil Twilight 7:07 AM PST 4:47 PM PST
Nautical Twilight 6:28 AM PST 5:26 PM PST
Astronomical Twilight 5:50 AM PST 6:03 PM PST
Moon 4:59 PM PST (12/17) 7:39 AM PST (12/17)
Length of Visible Light 9h 39m
Length of Day
8h 27m
Full, 100% of the Moon is Illuminated
Dec 17
Full
Dec 25
Last Quarter
Jan 1
New
Jan 7
First Quarter
Jan 15
Full

Hourly Weather History & Observations

Time (PST) Temp. Windchill Dew Point Humidity Pressure Visibility Wind Dir Wind Speed Gust Speed Precip Events Conditions
12:55 AM 28.9 °F - 26.1 °F 89% 30.32 in 4.0 mi Calm Calm - N/A   Overcast
1:10 AM 28.4 °F 24.6 °F 26.6 °F 93% 30.28 in 1.5 mi NW 3.5 mph - N/A   Overcast
1:25 AM 28.4 °F - 26.6 °F 93% 30.28 in 0.8 mi Calm Calm - N/A   Mist
1:43 AM 28.4 °F - 26.6 °F 93% 30.27 in 0.2 mi Calm Calm - N/A Fog Light Freezing Fog
1:55 AM 28.9 °F - 27.0 °F 92% 30.30 in 0.2 mi Calm Calm - N/A Fog Light Freezing Fog
2:55 AM 28.9 °F 25.2 °F 26.1 °F 89% 30.29 in 0.2 mi ENE 3.5 mph - N/A Fog Light Freezing Fog
3:39 AM 28.4 °F - 26.6 °F 93% 30.24 in 0.2 mi Calm Calm - N/A Fog Light Freezing Fog
3:55 AM 28.9 °F - 27.0 °F 92% 30.27 in 0.2 mi Calm Calm - N/A Fog Light Freezing Fog
4:13 AM 28.4 °F - 28.4 °F 100% 30.23 in 0.2 mi Calm Calm - N/A Fog Light Freezing Fog
4:55 AM 28.9 °F - 28.0 °F 96% 30.25 in 0.2 mi Calm Calm - N/A Fog Light Freezing Fog
5:15 AM 28.4 °F - 26.6 °F 93% 30.20 in 0.2 mi Calm Calm - N/A Fog Light Freezing Fog
5:55 AM 28.9 °F - 28.0 °F 96% 30.24 in 0.2 mi Calm Calm - N/A Fog Light Freezing Fog
6:55 AM 28.9 °F - 27.0 °F 92% 30.22 in 0.2 mi Calm Calm - N/A Fog Light Freezing Fog
7:47 AM 28.4 °F - 26.6 °F 93% 30.17 in 0.2 mi Calm Calm - N/A Fog Light Freezing Fog
7:55 AM 28.9 °F - 27.0 °F 92% 30.21 in 0.2 mi Calm Calm - N/A Fog Light Freezing Fog
7:57 AM 28.4 °F - 26.6 °F 93% 30.17 in 0.5 mi Calm Calm - N/A Fog Light Freezing Fog
8:22 AM 28.4 °F - 26.6 °F 93% 30.17 in 0.2 mi Calm Calm - N/A Fog Light Freezing Fog
8:55 AM 28.9 °F - 27.0 °F 92% 30.20 in 0.2 mi Calm Calm - N/A Fog Light Freezing Fog
9:26 AM 28.4 °F - 26.6 °F 93% 30.15 in 0.8 mi Calm Calm - N/A   Mist
9:48 AM 28.4 °F - 28.4 °F 100% 30.14 in 0.2 mi Calm Calm - N/A Fog Light Freezing Fog
9:55 AM 28.9 °F - 28.0 °F 96% 30.18 in 0.2 mi Calm Calm - N/A Fog Light Freezing Fog
10:51 AM 28.4 °F - 28.4 °F 100% 30.12 in 0.5 mi Calm Calm - N/A Fog Light Freezing Fog
10:55 AM 28.9 °F 25.2 °F 28.0 °F 96% 30.16 in 0.2 mi Variable 3.5 mph - N/A Fog Light Freezing Fog
11:11 AM 28.4 °F - 28.4 °F 100% 30.11 in 0.5 mi Calm Calm - N/A Fog Light Freezing Fog
11:55 AM 30.0 °F - 28.0 °F 92% 30.12 in 0.2 mi Calm Calm - N/A Fog Light Freezing Fog
12:46 PM 30.2 °F - 28.4 °F 93% 30.06 in 0.5 mi Calm Calm - N/A Fog Light Freezing Fog
12:55 PM 30.0 °F - 28.0 °F 92% 30.10 in 0.2 mi Calm Calm - N/A Fog Light Freezing Fog
1:55 PM 30.0 °F - 28.0 °F 92% 30.08 in 0.2 mi Calm Calm - N/A Fog Light Freezing Fog
2:26 PM 30.2 °F - 28.4 °F 93% 30.04 in 1.0 mi Calm Calm - N/A   Overcast
2:35 PM 30.2 °F - 28.4 °F 93% 30.04 in 0.8 mi Calm Calm - N/A   Overcast
2:55 PM 30.0 °F - 28.0 °F 92% 30.09 in 0.5 mi Calm Calm - N/A Fog Light Freezing Fog
3:42 PM 30.2 °F 26.7 °F 28.4 °F 93% 30.04 in 0.2 mi SE 3.5 mph - N/A Fog Light Freezing Fog
3:55 PM 30.0 °F - 28.0 °F 92% 30.08 in 0.2 mi Calm Calm - N/A Fog Light Freezing Fog
4:55 PM 30.0 °F - 28.0 °F 92% 30.07 in 0.2 mi Calm Calm - N/A Fog Light Freezing Fog
5:22 PM 30.2 °F - 28.4 °F 93% 30.02 in 0.5 mi Calm Calm - N/A Fog Light Freezing Fog
5:55 PM 30.0 °F - 28.0 °F 92% 30.06 in 0.5 mi Calm Calm - N/A Fog Light Freezing Fog
6:03 PM 30.2 °F - 28.4 °F 93% 30.01 in 0.2 mi Calm Calm - N/A Fog Light Freezing Fog
6:55 PM 30.0 °F - 28.0 °F 92% 30.04 in 0.5 mi Calm Calm - N/A Fog Light Freezing Fog
7:02 PM 30.2 °F - 28.4 °F 93% 30.00 in 0.2 mi Calm Calm - N/A Fog Light Freezing Fog
7:46 PM 30.2 °F 25.4 °F 28.4 °F 93% 29.99 in 0.2 mi SE 4.6 mph - N/A Fog Light Freezing Fog
7:55 PM 28.9 °F 25.2 °F 27.0 °F 92% 30.03 in 0.2 mi SSE 3.5 mph - N/A Fog Light Freezing Fog
8:55 PM 30.0 °F - 27.0 °F 88% 30.02 in 0.2 mi Calm Calm - N/A Fog Light Freezing Fog
9:55 PM 30.0 °F - 27.0 °F 88% 30.01 in 0.2 mi Calm Calm - N/A Fog Light Freezing Fog
10:55 PM 30.0 °F 26.5 °F 27.0 °F 88% 30.01 in 0.2 mi ENE 3.5 mph - N/A Fog Light Freezing Fog
11:55 PM 30.9 °F - 26.1 °F 82% 30.00 in 0.2 mi Calm Calm - N/A   Haze